This is the latest recevied weather packets stored in our database for station/object YO6IKB-10. If no packets are shown the sender has not sent any weather packets the latest 1 day(s).
| Time | Temp. | Humidity | Pressure | Rain* | Wind** | Luminosity | Snow |
|---|---|---|---|---|---|---|---|
| 1777995483 | 26.67° C | 30% | 1008.2 hPa | 0 mm | 0 m/s | - | - |
| 1777995182 | 28.33° C | 30% | 1008.3 hPa | 0 mm | 0 m/s | - | - |
| 1777994882 | 29.44° C | 30% | 1008.2 hPa | 0 mm | 0 m/s | - | - |
| 1777994582 | 30.56° C | 29% | 1008.3 hPa | 0 mm | 0 m/s | - | - |
| 1777994281 | 31.11° C | 28% | 1008.3 hPa | 0 mm | 3.13 m/s, 180° | - | - |
| 1777993981 | 31.67° C | 28% | 1008.4 hPa | 0 mm | 0 m/s | - | - |
| 1777993681 | 31.11° C | 29% | 1008.4 hPa | 0 mm | 0 m/s | - | - |
| 1777993381 | 30.56° C | 29% | 1008.6 hPa | 0 mm | 0.45 m/s, 292° | - | - |
| 1777993080 | 29.44° C | 32% | 1008.8 hPa | 0 mm | 0 m/s | - | - |
| 1777992780 | 28.89° C | 32% | 1008.8 hPa | 0 mm | 0 m/s | - | - |
| 1777992480 | 28.33° C | 31% | 1008.9 hPa | 0 mm | 0.45 m/s, 315° | - | - |
| 1777992179 | 27.78° C | 31% | 1008.9 hPa | 0 mm | 1.34 m/s, 292° | - | - |
| 1777991879 | 27.78° C | 30% | 1009.1 hPa | 0 mm | 0 m/s | - | - |
| 1777991579 | 27.22° C | 33% | 1009.2 hPa | 0 mm | 0 m/s | - | - |
| 1777991279 | 27.22° C | 34% | 1009.2 hPa | 0 mm | 1.34 m/s, 292° | - | - |
| 1777990978 | 26.67° C | 34% | 1009.2 hPa | 0 mm | 0 m/s | - | - |
| 1777990678 | 26.11° C | 32% | 1009.3 hPa | 0 mm | 0 m/s | - | - |
| 1777990378 | 26.11° C | 34% | 1009.5 hPa | 0 mm | 0 m/s | - | - |
| 1777990077 | 26.11° C | 33% | 1009.5 hPa | 0 mm | 0 m/s | - | - |
| 1777989777 | 26.11° C | 34% | 1009.5 hPa | 0 mm | 0.45 m/s, 292° | - | - |
| 1777989477 | 26.11° C | 35% | 1009.5 hPa | 0 mm | 1.34 m/s, 315° | - | - |
| 1777989177 | 25.56° C | 33% | 1009.6 hPa | 0 mm | 0.89 m/s, 292° | - | - |
| 1777988876 | 25.56° C | 32% | 1009.7 hPa | 0 mm | 0.89 m/s, 292° | - | - |
| 1777988576 | 25.56° C | 33% | 1009.8 hPa | 0 mm | 0.89 m/s, 292° | - | - |
| 1777988276 | 25° C | 33% | 1009.8 hPa | 0 mm | 0.89 m/s, 292° | - | - |
* Rain latest hour (hover to see other rain measurements)
** Current wind speed in m/s (hover to see current wind gust speed)